Weather History for Crestview, FL

Change the Weather History Date:

Thursday, August 21, 2014

  Actual Average Record
Temperature  
Mean Temperature 84 °F -  
Max Temperature 94 °F - - ()
Min Temperature 73 °F - - ()
Cooling Degree Days 18    
Growing Degree Days 34 (Base 50)    
Moisture  
Dew Point 77 °F    
Average Humidity 80    
Maximum Humidity 100    
Minimum Humidity 56    
Precipitation  
Precipitation 0.00 in - - ()
Sea Level Pressure  
Sea Level Pressure 30.11 in    
Wind  
Wind Speed 4 mph (West)    
Max Wind Speed 12 mph    
Max Gust Speed -    
Visibility 10 miles    
Events Rain , Thunderstorm    
T = Trace of Precipitation, MM = Missing Value Source: NWS Daily Summary

Daily Weather History Graph

Daily Weather History Graph

Search for Another Location

Airport:

Trip Planner

Search our weather history database for the weather conditions in past years. The results will help you decide how hot, cold, wet, or windy it might be!

Date:

Astronomy

Aug. 21, 2014 Rise Set
Actual Time 6:16 AM CDT 7:21 PM CDT
Civil Twilight 5:51 AM CDT 7:46 PM CDT
Nautical Twilight 5:21 AM CDT 8:16 PM CDT
Astronomical Twilight 4:50 AM CDT 8:46 PM CDT
Moon 2:52 AM CDT (8/21) 4:44 PM CDT (8/21)
Length of Visible Light 13h 55m
Length of Day
13h 05m
Waning Crescent, 13% of the Moon is Illuminated
Aug 21
Waning Crescent
Aug 25
New
Sep 2
First Quarter
Sep 8
Full
Sep 15
Last Quarter

Hourly Weather History & Observations

Time (CDT) Temp. Heat Index Dew Point Humidity Pressure Visibility Wind Dir Wind Speed Gust Speed Precip Events Conditions
12:58 AM 75.7 °F - 75.4 °F 99% 30.10 in 10.0 mi West 3.5 mph - N/A   Clear
1:58 AM 74.3 °F - 74.3 °F 100% 30.10 in 10.0 mi Calm Calm - N/A   Clear
2:58 AM 73.9 °F - 73.9 °F 100% 30.09 in 10.0 mi Calm Calm - N/A   Clear
3:58 AM 74.5 °F - 74.5 °F 100% 30.09 in 10.0 mi West 3.5 mph - N/A   Clear
4:58 AM 76.1 °F - 76.1 °F 100% 30.09 in 10.0 mi West 4.6 mph - N/A   Clear
5:58 AM 75.9 °F - 75.9 °F 100% 30.12 in 10.0 mi WNW 1.2 mph - N/A   Clear
6:58 AM 75.0 °F - 75.0 °F 100% 30.14 in 10.0 mi North 2.3 mph - N/A   Clear
7:58 AM 77.5 °F - 77.5 °F 100% 30.17 in 10.0 mi NNW 3.5 mph - N/A   Clear
8:55 AM 82.8 °F 93.2 °F 79.0 °F 88% 30.17 in 10.0 mi NW 6.9 mph - N/A   Scattered Clouds
9:55 AM 86.5 °F 99.9 °F 78.6 °F 77% 30.14 in 10.0 mi NW 6.9 mph - N/A   Scattered Clouds
10:55 AM 89.2 °F 101.8 °F 77.2 °F 67% 30.15 in 10.0 mi NW 6.9 mph - N/A   Scattered Clouds
11:55 AM 90.3 °F 103.5 °F 77.0 °F 65% 30.14 in 10.0 mi NNE 2.3 mph - N/A   Scattered Clouds
12:55 PM 90.5 °F 102.7 °F 76.3 °F 63% 30.12 in 10.0 mi West 1.2 mph - N/A   Scattered Clouds
1:55 PM 93.6 °F 107.4 °F 77.0 °F 58% 30.12 in 10.0 mi SW 5.8 mph - N/A   Scattered Clouds
2:46 PM 93.2 °F 107.2 °F 77.0 °F 59% 30.09 in 10.0 mi West 4.6 mph - N/A Thunderstorm Scattered Clouds
2:55 PM 94.6 °F 108.8 °F 77.0 °F 56% 30.08 in 10.0 mi NE 3.5 mph - N/A Thunderstorm Scattered Clouds
3:55 PM 92.5 °F 103.9 °F 75.2 °F 57% 30.05 in 10.0 mi SW 11.5 mph - N/A Thunderstorm Scattered Clouds
4:23 PM 93.2 °F 105.0 °F 75.2 °F 56% 30.07 in 10.0 mi SW 10.4 mph - N/A   Scattered Clouds
4:55 PM 92.3 °F 105.5 °F 76.6 °F 60% 30.07 in 10.0 mi SSW 10.4 mph - N/A   Mostly Cloudy
5:08 PM 91.4 °F 107.2 °F 78.8 °F 66% 30.07 in 10.0 mi SSW 8.1 mph - N/A Thunderstorm Thunderstorm
5:32 PM 91.4 °F 111.0 °F 80.6 °F 71% 30.07 in 10.0 mi WSW 6.9 mph - N/A   Mostly Cloudy
5:55 PM 87.8 °F 102.5 °F 78.8 °F 75% 30.09 in 10.0 mi Calm Calm - 0.00 in Rain Light Rain
6:58 PM 87.4 °F 102.6 °F 79.3 °F 77% 30.09 in 10.0 mi SSW 8.1 mph - 0.00 in   Scattered Clouds
7:59 PM 84.6 °F 97.7 °F 79.7 °F 85% 30.09 in 10.0 mi SSW 6.9 mph - N/A   Scattered Clouds
8:56 PM 83.3 °F 94.5 °F 79.2 °F 87% 30.12 in 10.0 mi SSW 5.8 mph - N/A   Partly Cloudy
9:57 PM 82.4 °F 92.1 °F 78.6 °F 88% 30.12 in 10.0 mi WSW 4.6 mph - N/A   Partly Cloudy
10:55 PM 81.3 °F 89.4 °F 78.3 °F 90% 30.12 in 10.0 mi WSW 3.5 mph - N/A   Partly Cloudy
11:55 PM 80.8 °F 87.8 °F 77.7 °F 90% 30.10 in 10.0 mi SW 3.5 mph - N/A   Partly Cloudy